| time (UTC) | temp F | wind direction | speed MPH | gust MPH | rain 1hr in | rain 24hr in | rain mn in | humidity % | barometer mb |
| 20260510201405 | 49 | 54 | 0.0 | 0.0 | 0.00 | 0.00 | 0.00 | 66 | 1014.8 |
| 20260510194047 | 52 | 54 | 0.0 | 0.0 | 0.00 | 0.00 | 0.00 | 63 | 1014.8 |
| 20260510192012 | 53 | 54 | 0.0 | 2.0 | 0.00 | 0.00 | 0.00 | 61 | 1014.8 |
| 20260510191013 | 53 | 54 | 0.0 | 0.0 | 0.00 | 0.00 | 0.00 | 61 | 1014.9 |
| 20260510190037 | 53 | 54 | 0.0 | 0.0 | 0.00 | 0.00 | 0.00 | 60 | 1015.0 |
| 20260510185044 | 54 | 57 | 0.0 | 0.0 | 0.00 | 0.00 | 0.00 | 58 | 1015.0 |
| 20260510182914 | 55 | 31 | 0.0 | 1.0 | 0.00 | 0.00 | 0.00 | 56 | 1015.1 |
| 20260510181843 | 56 | 31 | 0.0 | 4.0 | 0.00 | 0.00 | 0.00 | 55 | 1015.0 |
| 20260510180841 | 57 | 34 | 2.0 | 7.0 | 0.00 | 0.00 | 0.00 | 53 | 1014.9 |
| 20260510175841 | 57 | 49 | 1.0 | 7.0 | 0.00 | 0.00 | 0.00 | 55 | 1014.9 |
| 20260510174859 | 56 | 66 | 1.0 | 2.0 | 0.00 | 0.00 | 0.00 | 60 | 1014.9 |
| 20260510173832 | 56 | 42 | 0.0 | 4.0 | 0.00 | 0.00 | 0.00 | 57 | 1015.0 |
| 20260510172830 | 56 | 23 | 1.0 | 7.0 | 0.00 | 0.00 | 0.00 | 56 | 1015.0 |
| 20260510171825 | 56 | 43 | 1.0 | 7.0 | 0.00 | 0.00 | 0.00 | 57 | 1015.0 |
| 20260510170845 | 56 | 51 | 0.0 | 1.0 | 0.00 | 0.00 | 0.00 | 58 | 1015.2 |
| 20260510165854 | 57 | 44 | 0.0 | 3.0 | 0.00 | 0.00 | 0.00 | 55 | 1015.4 |
| 20260510164916 | 57 | 38 | 2.0 | 7.0 | 0.00 | 0.00 | 0.00 | 54 | 1015.4 |
| 20260510163906 | 58 | 40 | 2.0 | 7.0 | 0.00 | 0.00 | 0.00 | 57 | 1015.5 |
| 20260510162843 | 58 | 38 | 1.0 | 7.0 | 0.00 | 0.00 | 0.00 | 55 | 1015.7 |
| 20260510161907 | 57 | 9 | 0.0 | 2.0 | 0.00 | 0.00 | 0.00 | 58 | 1015.7 |
| 20260510155805 | 58 | 21 | 1.0 | 5.0 | 0.00 | 0.00 | 0.00 | 56 | 1016.0 |
| 20260510153703 | 58 | 54 | 0.0 | 4.0 | 0.00 | 0.00 | 0.00 | 60 | 1016.1 |
| 20260510152707 | 57 | 67 | 1.0 | 7.0 | 0.00 | 0.00 | 0.00 | 59 | 1016.2 |
| 20260510151654 | 58 | 73 | 1.0 | 7.0 | 0.00 | 0.00 | 0.00 | 58 | 1016.3 |
| 20260510150650 | 57 | 42 | 2.0 | 5.0 | 0.00 | 0.00 | 0.00 | 58 | 1016.5 |
| 20260510144500 | 58 | 58 | 2.0 | 10.0 | 0.00 | 0.00 | 0.00 | 60 | 1016.8 |
| 20260510141246 | 57 | 30 | 1.0 | 5.0 | 0.00 | 0.00 | 0.00 | 63 | 1017.1 |
| 20260510140226 | 57 | 21 | 1.0 | 1.0 | 0.00 | 0.00 | 0.00 | 66 | 1017.1 |
| 20260510135211 | 57 | 28 | 3.0 | 11.0 | 0.00 | 0.00 | 0.00 | 64 | 1017.3 |
| 20260510134159 | 58 | 12 | 2.0 | 11.0 | 0.00 | 0.00 | 0.00 | 65 | 1017.1 |
| 20260510133145 | 58 | 11 | 3.0 | 10.0 | 0.00 | 0.00 | 0.00 | 66 | 1017.3 |
| 20260510132125 | 57 | 17 | 1.0 | 7.0 | 0.00 | 0.00 | 0.00 | 69 | 1017.5 |
| 20260510130016 | 55 | 61 | 2.0 | 7.0 | 0.00 | 0.00 | 0.00 | 68 | 1017.5 |
| 20260510125040 | 56 | 349 | 1.0 | 7.0 | 0.00 | 0.00 | 0.00 | 69 | 1017.6 |
| 20260510124033 | 56 | 50 | 2.0 | 7.0 | 0.00 | 0.00 | 0.00 | 69 | 1017.8 |
| 20260510123030 | 55 | 40 | 2.0 | 7.0 | 0.00 | 0.00 | 0.00 | 70 | 1017.8 |
| 20260510122028 | 54 | 13 | 2.0 | 6.0 | 0.00 | 0.00 | 0.00 | 71 | 1018.0 |
| 20260510121034 | 54 | 29 | 2.0 | 10.0 | 0.00 | 0.00 | 0.00 | 72 | 1018.2 |
| 20260510120030 | 54 | 38 | 3.0 | 10.0 | 0.00 | 0.00 | 0.00 | 72 | 1018.3 |
| 20260510114959 | 54 | 60 | 2.0 | 8.0 | 0.00 | 0.00 | 0.00 | 73 | 1018.4 |
| 20260510114021 | 54 | 19 | 2.0 | 8.0 | 0.00 | 0.00 | 0.00 | 74 | 1018.6 |
| 20260510113003 | 54 | 39 | 1.0 | 6.0 | 0.00 | 0.00 | 0.00 | 75 | 1018.7 |
| 20260510111956 | 54 | 35 | 1.0 | 6.0 | 0.00 | 0.00 | 0.00 | 76 | 1018.8 |
| 20260510111005 | 52 | 331 | 2.0 | 6.0 | 0.00 | 0.00 | 0.00 | 78 | 1018.8 |
| 20260510105953 | 52 | 55 | 2.0 | 7.0 | 0.00 | 0.00 | 0.00 | 78 | 1019.0 |
| 20260510105008 | 51 | 346 | 2.0 | 10.0 | 0.00 | 0.00 | 0.00 | 79 | 1019.1 |
| 20260510103954 | 51 | 9 | 3.0 | 10.0 | 0.00 | 0.00 | 0.00 | 79 | 1019.1 |
| 20260510102948 | 50 | 65 | 3.0 | 8.0 | 0.00 | 0.00 | 0.00 | 79 | 1019.1 |
| 20260510102000 | 50 | 41 | 2.0 | 9.0 | 0.00 | 0.00 | 0.00 | 79 | 1019.2 |
| 20260510095840 | 50 | 90 | 1.0 | 7.0 | 0.00 | 0.00 | 0.00 | 81 | 1019.2 |
| 20260510094808 | 50 | 5 | 2.0 | 7.0 | 0.00 | 0.00 | 0.00 | 81 | 1019.3 |
| 20260510093826 | 49 | 51 | 1.0 | 5.0 | 0.00 | 0.00 | 0.00 | 82 | 1019.4 |
| 20260510092845 | 49 | 36 | 2.0 | 6.0 | 0.00 | 0.00 | 0.00 | 83 | 1019.4 |
| 20260510090707 | 48 | 36 | 2.0 | 7.0 | 0.00 | 0.00 | 0.00 | 84 | 1019.7 |
| 20260510085647 | 48 | 29 | 1.0 | 6.0 | 0.00 | 0.00 | 0.00 | 85 | 1019.6 |
| 20260510084707 | 48 | 11 | 0.0 | 7.0 | 0.00 | 0.00 | 0.00 | 85 | 1019.6 |
| 20260510083651 | 47 | 11 | 1.0 | 7.0 | 0.00 | 0.00 | 0.00 | 85 | 1019.7 |
| 20260510082712 | 47 | 5 | 1.0 | 12.0 | 0.00 | 0.00 | 0.00 | 86 | 1019.7 |
| 20260510081729 | 47 | 355 | 1.0 | 7.0 | 0.00 | 0.00 | 0.00 | 87 | 1019.7 |
| 20260510080752 | 47 | 42 | 2.0 | 6.0 | 0.00 | 0.00 | 0.00 | 87 | 1019.7 |
| 20260510074611 | 47 | 49 | 0.0 | 8.0 | 0.00 | 0.00 | 0.00 | 87 | 1019.7 |
| 20260510073605 | 47 | 23 | 2.0 | 8.0 | 0.00 | 0.00 | 0.00 | 88 | 1019.7 |
| 20260510072601 | 47 | 50 | 2.0 | 7.0 | 0.00 | 0.00 | 0.00 | 88 | 1019.6 |
| 20260510071544 | 47 | 49 | 1.0 | 4.0 | 0.00 | 0.00 | 0.00 | 88 | 1019.5 |
| 20260510070515 | 47 | 39 | 0.0 | 8.0 | 0.00 | 0.00 | 0.00 | 88 | 1019.5 |
| 20260510065448 | 47 | 57 | 1.0 | 6.0 | 0.00 | 0.00 | 0.00 | 88 | 1019.5 |
| 20260510064452 | 47 | 0 | 2.0 | 7.0 | 0.00 | 0.00 | 0.00 | 89 | 1019.3 |
| 20260510063431 | 47 | 14 | 2.0 | 7.0 | 0.00 | 0.00 | 0.00 | 89 | 1019.3 |
| 20260510061231 | 47 | 28 | 0.0 | 1.0 | 0.00 | 0.00 | 0.00 | 89 | 1019.3 |
| 20260510060237 | 47 | 38 | 1.0 | 4.0 | 0.00 | 0.00 | 0.00 | 89 | 1019.2 |
| 20260510055259 | 47 | 307 | 0.0 | 4.0 | 0.00 | 0.00 | 0.00 | 89 | 1019.3 |
| 20260510054301 | 47 | 11 | 1.0 | 7.0 | 0.00 | 0.00 | 0.00 | 89 | 1019.2 |
| 20260510053227 | 47 | 34 | 1.0 | 7.0 | 0.00 | 0.00 | 0.00 | 89 | 1019.1 |
| 20260510052218 | 47 | 5 | 1.0 | 6.0 | 0.00 | 0.00 | 0.00 | 89 | 1019.2 |
| 20260510051217 | 47 | 54 | 1.0 | 7.0 | 0.00 | 0.00 | 0.00 | 89 | 1019.2 |
| 20260510045100 | 47 | 28 | 1.0 | 7.0 | 0.00 | 0.00 | 0.00 | 89 | 1019.3 |
| 20260510044123 | 47 | 36 | 0.0 | 2.0 | 0.00 | 0.00 | 0.00 | 89 | 1019.4 |
| 20260510043145 | 47 | 38 | 0.0 | 1.0 | 0.00 | 0.00 | 0.00 | 89 | 1019.4 |
| 20260510042114 | 48 | 51 | 0.0 | 6.0 | 0.00 | 0.00 | 0.00 | 89 | 1019.4 |
| 20260510041104 | 48 | 44 | 0.0 | 6.0 | 0.00 | 0.00 | 0.00 | 89 | 1019.5 |
| 20260510040128 | 48 | 31 | 0.0 | 4.0 | 0.00 | 0.00 | 0.00 | 89 | 1019.5 |
| 20260510035145 | 48 | 0 | 0.0 | 1.0 | 0.00 | 0.00 | 0.00 | 89 | 1019.6 |
| 20260510034203 | 48 | 34 | 1.0 | 6.0 | 0.00 | 0.00 | 0.00 | 89 | 1019.6 |
| 20260510033205 | 48 | 55 | 1.0 | 6.0 | 0.00 | 0.00 | 0.00 | 89 | 1019.5 |
| 20260510032205 | 48 | 29 | 0.0 | 0.0 | 0.00 | 0.00 | 0.00 | 88 | 1019.6 |
| 20260510031219 | 48 | 25 | 0.0 | 1.0 | 0.00 | 0.00 | 0.00 | 88 | 1019.6 |
| 20260510030153 | 48 | 23 | 0.0 | 4.0 | 0.00 | 0.00 | 0.00 | 88 | 1019.7 |
| 20260510025212 | 48 | 44 | 0.0 | 1.0 | 0.00 | 0.00 | 0.00 | 88 | 1019.7 |
| 20260510024206 | 48 | 0 | 0.0 | 5.0 | 0.00 | 0.00 | 0.00 | 88 | 1019.7 |
| 20260510020926 | 49 | 14 | 0.0 | 6.0 | 0.00 | 0.00 | 0.00 | 87 | 1019.7 |
| 20260510015944 | 49 | 54 | 1.0 | 9.0 | 0.00 | 0.00 | 0.00 | 87 | 1019.7 |
| 20260510014958 | 49 | 29 | 2.0 | 9.0 | 0.00 | 0.00 | 0.00 | 87 | 1019.7 |
| 20260510013951 | 50 | 49 | 1.0 | 5.0 | 0.00 | 0.00 | 0.00 | 86 | 1019.7 |
| 20260510011845 | 50 | 32 | 0.0 | 0.0 | 0.00 | 0.00 | 0.00 | 86 | 1019.8 |
| 20260510010831 | 50 | 23 | 0.0 | 6.0 | 0.00 | 0.00 | 0.00 | 86 | 1019.9 |
| 20260510005841 | 50 | 19 | 1.0 | 6.0 | 0.00 | 0.00 | 0.00 | 86 | 1019.8 |
| 20260510004827 | 50 | 28 | 0.0 | 4.0 | 0.00 | 0.00 | 0.00 | 86 | 1019.8 |
| 20260510003837 | 50 | 45 | 1.0 | 4.0 | 0.00 | 0.00 | 0.00 | 85 | 1019.6 |
| 20260510002846 | 50 | 44 | 1.0 | 7.0 | 0.00 | 0.00 | 0.00 | 85 | 1019.6 |
| 20260510001844 | 50 | 26 | 1.0 | 7.0 | 0.00 | 0.00 | 0.00 | 85 | 1019.5 |
| 20260510000843 | 50 | 40 | 1.0 | 3.0 | 0.00 | 0.00 | 0.00 | 85 | 1019.6 |
| 20260509235825 | 50 | 53 | 0.0 | 6.0 | 0.00 | 0.00 | 0.00 | 84 | 1019.6 |
| 20260509233700 | 51 | 40 | 0.0 | 0.0 | 0.00 | 0.00 | 0.00 | 84 | 1019.6 |
| 20260509232652 | 51 | 28 | 0.0 | 0.0 | 0.00 | 0.00 | 0.00 | 84 | 1019.6 |
| 20260509230542 | 51 | 24 | 0.0 | 4.0 | 0.00 | 0.00 | 0.00 | 84 | 1019.5 |
| 20260509225526 | 51 | 42 | 0.0 | 1.0 | 0.00 | 0.00 | 0.00 | 83 | 1019.4 |
| 20260509223406 | 52 | 22 | 1.0 | 1.0 | 0.00 | 0.00 | 0.00 | 83 | 1019.2 |
| 20260509222404 | 52 | 23 | 1.0 | 7.0 | 0.00 | 0.00 | 0.00 | 83 | 1019.1 |
| 20260509220247 | 53 | 41 | 1.0 | 3.0 | 0.00 | 0.03 | 0.00 | 83 | 1019.0 |
| 20260509215228 | 53 | 90 | 1.0 | 7.0 | 0.00 | 0.04 | 0.00 | 82 | 1018.9 |
| 20260509214244 | 54 | 38 | 2.0 | 8.0 | 0.00 | 0.04 | 0.00 | 82 | 1019.0 |
| 20260509213215 | 54 | 61 | 2.0 | 8.0 | 0.00 | 0.04 | 0.00 | 82 | 1018.8 |
| 20260509212216 | 54 | 48 | 1.0 | 5.0 | 0.00 | 0.04 | 0.00 | 81 | 1018.7 |
| 20260509211156 | 54 | 50 | 1.0 | 4.0 | 0.00 | 0.04 | 0.00 | 81 | 1018.6 |
| 20260509210141 | 55 | 57 | 2.0 | 8.0 | 0.00 | 0.04 | 0.00 | 81 | 1018.5 |
| 20260509205117 | 55 | 42 | 2.0 | 8.0 | 0.00 | 0.04 | 0.00 | 81 | 1018.4 |
| 20260509204141 | 55 | 15 | 2.0 | 6.0 | 0.00 | 0.04 | 0.00 | 82 | 1018.5 |
| 20260509203123 | 55 | 41 | 1.0 | 6.0 | 0.00 | 0.04 | 0.00 | 82 | 1018.3 |
| 20260509202049 | 56 | 37 | 1.0 | 6.0 | 0.00 | 0.04 | 0.00 | 81 | 1018.3 |